Tracking 30258 objects as of 19-Feb-2025
HD Live streaming from Space Station
objects crossing your sky now

ONEWEB-0319

Track ONEWEB-0319 now!
10-day predictions
ONEWEB-0319 is classified as:


NORAD ID: 49105
Int'l Code: 2021-075AG
Perigee: 1,199.8 km
Apogee: 1,201.9 km
Inclination: 87.9 °
Period: 109.3 minutes
Semi major axis: 7571 km
RCS: Unknown
Launch date: August 21, 2021
Source: United Kingdom (UK)
Launch site: TYURATAM MISSILE AND SPACE COMPLEX (TTMTR)
Your satellite tracking list
Your tracking list is empty




NASA's NSSDC Master Catalog

Two Line Element Set (TLE):
1 49105U 21075AG  25050.59903124  .00000012  00000-0 -29692-5 0  9996
2 49105  87.9042 102.0318 0001406  94.2860 265.8432 13.17650966170053
Source of the keplerian elements: AFSPC